User: anonymous   Login
Location: Penton Mewsey
(51.2167°N, 1.5167°W)
Time: 17:53:51
(UTC+00:00)
Language:

STARLINK-1106 - Orbit

View from above orbital plane
View from above orbital plane
View from above satellite
View from above satellite

Ground track
Ground track

The orbit data is extracted from the following two-line orbital elements,

1 44923U 20001K   20185.50001157 -.00029308  00000-0 -19992-2 0  9996
2 44923  52.9997 302.5074 0001504 119.3000 171.4076 15.05606383 27079
Epoch (UTC): 03 July 2020 12:00:01
Eccentricity: 0.0001504
inclination: 52.9997°
perigee height: 548 km
apogee height: 550 km
right ascension of ascending node: 302.5074°
argument of perigee: 119.3000°
revolutions per day: 15.05606383
mean anomaly at epoch: 171.4076°
orbit number at epoch: 2707

The dashed part of the orbit path shows where the satellite is in the earth's shadow,  

DLR